DW9080 Weather Reports


time (UTC)temp
C
wind
direction
speed
KPH
gust
KPH
rain 1hr
cm
rain 24hr
cm
rain mn
cm
humidity
%
barometer
mb
20260906153039 18 135 0.0 1.6 0.00 0.00 0.00 79 1008.3
20260906152531 18 71 0.0 1.6 0.00 0.00 0.00 80 1008.2
20260906152031 18 37 0.0 0.0 0.00 0.00 0.00 83 1008.2
20260906151513 18 63 0.0 1.6 0.00 0.00 0.00 83 1008.2
20260906151013 17 44 0.0 1.6 0.00 0.00 0.00 85 1008.3
20260906150515 17 62 0.0 1.6 0.00 0.00 0.00 85 1008.3
20260906150116 17 314 0.0 1.6 0.00 0.00 0.00 86 1008.3
20260906145513 17 63 0.0 1.6 0.00 0.00 0.00 88 1008.1
20260906145013 17 65 0.0 1.6 0.00 0.00 0.00 89 1008.0
20260906144609 17 69 0.0 1.6 0.00 0.00 0.00 90 1008.1
20260906144056 16 61 0.0 1.6 0.00 0.00 0.00 90 1007.9
20260906143555 16 67 0.0 0.0 0.00 0.00 0.00 93 1007.9
20260906143055 16 138 0.0 0.0 0.00 0.00 0.00 96 1007.9
20260906142555 15 61 0.0 0.0 0.00 0.00 0.00 97 1007.9
20260906142055 14 60 0.0 0.0 0.00 0.00 0.00 97 1008.0
20260906141545 14 70 0.0 0.0 0.00 0.00 0.00 96 1007.9
20260906141040 14 104 0.0 0.0 0.00 0.00 0.00 97 1007.9
20260906140536 13 49 0.0 1.6 0.00 0.00 0.00 97 1007.7
20260906140040 13 68 0.0 1.6 0.00 0.00 0.00 97 1007.7
20260906135537 13 63 0.0 1.6 0.00 0.00 0.00 97 1007.7
20260906135036 13 70 0.0 0.0 0.00 0.00 0.00 97 1007.6
20260906134518 13 65 0.0 1.6 0.00 0.00 0.00 96 1007.5
20260906134017 13 87 0.0 1.6 0.00 0.00 0.00 96 1007.5
20260906133520 13 68 0.0 0.0 0.00 0.00 0.00 96 1007.4
20260906133016 13 63 0.0 0.0 0.00 0.00 0.00 96 1007.5
20260906132516 14 42 0.0 0.0 0.00 0.00 0.00 96 1007.6
20260906132016 13 73 0.0 0.0 0.00 0.00 0.00 96 1007.5
20260906131558 13 98 0.0 1.6 0.00 0.00 0.00 96 1007.5
20260906131058 13 61 0.0 1.6 0.00 0.00 0.00 96 1007.4
20260906130601 13 143 0.0 0.0 0.00 0.00 0.00 96 1007.2
20260906130057 14 82 0.0 0.0 0.00 0.00 0.00 96 1007.3
20260906125555 -17 0.0 0.0 0.00 0.00 0.00 1007.2
20260906125055 -17 0.0 0.0 0.00 0.00 0.00 1007.1
20260906124538 -17 0.0 0.0 0.00 0.00 0.00 1007.0
20260906124039 -17 0.0 0.0 0.00 0.00 0.00 1007.0
20260906123535 -17 0.0 0.0 0.00 0.00 0.00 1007.0
20260906123037 -17 0.0 0.0 0.00 0.00 0.00 1007.0
20260906122534 -17 0.0 0.0 0.00 0.00 0.00 1006.8
20260906122031 -17 0.0 0.0 0.00 0.00 0.00 1006.8
20260906121529 -17 0.0 0.0 0.00 0.00 0.00 1006.7
20260906121028 -17 0.0 0.0 0.00 0.00 0.00 1006.7
20260906120526 -17 0.0 0.0 0.00 0.00 0.00 1006.8
20260906120024 -17 0.0 0.0 0.00 0.00 0.00 1007.0
20260906115527 -17 0.0 0.0 0.00 0.00 0.00 1006.9
20260906115023 -17 0.0 0.0 0.00 0.00 0.00 1006.9
20260906114534 -17 0.0 0.0 0.00 0.00 0.00 1006.8
20260906114023 -17 0.0 0.0 0.00 0.00 0.00 1006.8
20260906113519 -17 0.0 0.0 0.00 0.00 0.00 1006.8
20260906113016 -17 0.0 0.0 0.00 0.00 0.00 1006.9
20260906112515 -17 0.0 0.0 0.00 0.00 0.00 1006.7
20260906111512 -17 0.0 0.0 0.00 0.00 0.00 1006.9
20260906111011 -17 0.0 0.0 0.00 0.00 0.00 1006.9
20260906110509 -17 0.0 0.0 0.00 0.00 0.00 1006.9
20260906110010 -17 0.0 0.0 0.00 0.00 0.00 1006.7
20260906105506 -17 0.0 0.0 0.00 0.00 0.00 1006.6
20260906105009 -17 0.0 0.0 0.00 0.00 0.00 1006.6
20260906104508 -17 0.0 0.0 0.00 0.00 0.00 1006.6
20260906104002 -17 0.0 0.0 0.00 0.00 0.00 1006.5
20260906103601 -17 0.0 0.0 0.00 0.00 0.00 1006.5
20260906103100 -17 0.0 0.0 0.00 0.00 0.00 1006.4
20260906102557 -17 0.0 0.0 0.00 0.00 0.00 1006.3
20260906102157 -17 0.0 0.0 0.00 0.00 0.00 1006.2
20260906101558 -17 0.0 0.0 0.00 0.00 0.00 1006.2
20260906101057 -17 0.0 0.0 0.00 0.00 0.00 1006.2
20260906100555 -17 0.0 0.0 0.00 0.00 0.00 1006.2
20260906100054 15 131 0.0 0.0 0.00 0.00 0.00 93 1006.2
20260906095554 15 131 0.0 0.0 0.00 0.00 0.00 93 1006.1
20260906095055 15 129 0.0 0.0 0.00 0.00 0.00 93 1006.1
20260906094636 15 130 0.0 0.0 0.00 0.00 0.00 93 1006.2
20260906094052 15 130 0.0 0.0 0.00 0.00 0.00 93 1006.3
20260906093552 15 131 0.0 0.0 0.00 0.00 0.00 93 1006.3
20260906093102 15 90 0.0 0.0 0.00 0.00 0.00 93 1006.3
20260906092555 15 91 0.0 1.6 0.00 0.00 0.00 93 1006.5
20260906092151 15 63 0.0 0.0 0.00 0.00 0.00 93 1006.4
20260906091537 15 74 0.0 0.0 0.00 0.00 0.00 92 1006.4
20260906091030 15 73 0.0 0.0 0.00 0.00 0.00 92 1006.4
20260906090532 15 72 0.0 0.0 0.00 0.00 0.00 92 1006.5
20260906090029 15 79 0.0 0.0 0.00 0.00 0.00 92 1006.6
20260906085528 15 83 0.0 0.0 0.00 0.00 0.00 92 1006.7
20260906085028 15 84 0.0 0.0 0.00 0.00 0.00 92 1006.7
20260906084513 15 111 0.0 0.0 0.00 0.00 0.00 92 1006.8
20260906084014 16 111 0.0 0.0 0.00 0.00 0.00 92 1006.9
20260906083510 16 114 0.0 0.0 0.00 0.00 0.00 92 1006.8
20260906083010 16 117 0.0 0.0 0.00 0.00 0.00 91 1006.7
20260906082509 16 117 0.0 0.0 0.00 0.00 0.00 91 1006.7
20260906082011 16 67 0.0 0.0 0.00 0.00 0.00 91 1006.8
20260906081554 16 60 0.0 0.0 0.00 0.00 0.00 91 1006.7
20260906081051 16 84 0.0 1.6 0.00 0.00 0.00 91 1006.7
20260906080550 16 61 0.0 1.6 0.00 0.00 0.00 91 1006.7
20260906080054 16 69 0.0 1.6 0.00 0.00 0.00 91 1006.8
20260906075549 16 69 0.0 0.0 0.00 0.00 0.00 90 1006.8
20260906075150 16 61 0.0 0.0 0.00 0.00 0.00 90 1006.8
20260906074537 16 98 0.0 1.6 0.00 0.00 0.00 90 1006.8
20260906074036 16 70 0.0 0.0 0.00 0.00 0.00 90 1007.1
20260906073535 16 61 0.0 0.0 0.00 0.00 0.00 89 1007.2
20260906073034 16 55 0.0 1.6 0.00 0.00 0.00 89 1007.1
20260906072536 16 70 0.0 1.6 0.00 0.00 0.00 89 1007.1
20260906072034 17 62 0.0 1.6 0.00 0.00 0.00 88 1007.1
20260906071632 17 63 0.0 1.6 0.00 0.00 0.00 88 1007.3
20260906071034 17 41 0.0 1.6 0.00 0.00 0.00 88 1007.3
20260906070534 17 63 0.0 0.0 0.00 0.00 0.00 88 1007.3
20260906070031 17 63 0.0 1.6 0.00 0.00 0.00 88 1007.3
20260906065532 17 66 0.0 1.6 0.00 0.00 0.00 87 1007.3
20260906065032 17 60 0.0 0.0 0.00 0.00 0.00 87 1007.3
20260906064530 17 101 0.0 0.0 0.00 0.00 0.00 87 1007.3
20260906064030 17 63 0.0 1.6 0.00 0.00 0.00 86 1007.4
20260906063530 17 58 0.0 1.6 0.00 0.00 0.00 86 1007.6
20260906063033 17 73 0.0 1.6 0.00 0.00 0.00 85 1007.7
20260906062530 17 69 0.0 0.0 0.00 0.00 0.00 85 1007.6
20260906062030 17 73 0.0 0.0 0.00 0.00 0.00 85 1007.8
20260906061536 17 163 0.0 0.0 0.00 0.00 0.00 84 1007.7
20260906061029 17 165 0.0 0.0 0.00 0.00 0.00 83 1007.7
20260906060529 18 163 0.0 0.0 0.00 0.00 0.00 83 1007.6
20260906060029 18 165 0.0 0.0 0.00 0.00 0.00 82 1007.5
20260906055532 18 163 0.0 0.0 0.00 0.00 0.00 82 1007.5
20260906055030 18 163 0.0 0.0 0.00 0.00 0.00 82 1007.5
20260906054529 18 188 0.0 0.0 0.00 0.00 0.00 81 1007.5
20260906054011 18 72 0.0 0.0 0.00 0.00 0.00 82 1007.5
20260906053511 18 72 0.0 0.0 0.00 0.00 0.00 82 1007.4
20260906053016 18 72 0.0 0.0 0.00 0.00 0.00 82 1007.5
20260906052511 18 72 0.0 0.0 0.00 0.00 0.00 82 1007.5
20260906052011 18 70 0.0 0.0 0.00 0.00 0.00 82 1007.5
20260906051511 18 57 0.0 0.0 0.00 0.00 0.00 82 1007.6
20260906051058 18 57 0.0 0.0 0.00 0.00 0.00 82 1007.6
20260906050553 18 29 0.0 0.0 0.00 0.00 0.00 82 1007.8
20260906050112 18 69 0.0 0.0 0.00 0.00 0.00 81 1007.6
20260906045553 18 69 0.0 0.0 0.00 0.00 0.00 81 1007.5
20260906045052 18 69 0.0 1.6 0.00 0.00 0.00 80 1007.4
20260906044554 18 69 0.0 1.6 0.00 0.00 0.00 80 1007.4
20260906044036 18 69 0.0 0.0 0.00 0.00 0.00 79 1007.3
20260906043534 18 67 0.0 1.6 0.00 0.00 0.00 79 1007.4
20260906043042 18 114 0.0 4.8 0.00 0.00 0.00 79 1007.4
20260906042534 19 72 0.0 4.8 0.00 0.00 0.00 78 1007.3
20260906042034 19 60 0.0 1.6 0.00 0.00 0.00 78 1007.3
20260906041537 19 66 0.0 1.6 0.00 0.00 0.00 77 1007.1
20260906041021 19 61 0.0 3.2 0.00 0.00 0.00 77 1007.1
20260906040521 19 67 0.0 1.6 0.00 0.00 0.00 77 1007.0
20260906040017 19 63 0.0 3.2 0.00 0.00 0.00 77 1007.1
20260906035515 19 61 0.0 3.2 0.00 0.00 0.00 77 1007.1
20260906035015 19 112 0.0 1.6 0.00 0.00 0.00 77 1007.0
20260906034516 19 63 0.0 1.6 0.00 0.00 0.00 76 1006.9
20260906034057 20 76 0.0 3.2 0.00 0.00 0.00 76 1006.9
20260906033558 20 62 0.0 3.2 0.00 0.00 0.00 75 1006.9
20260906033058 20 80 0.0 1.6 0.00 0.00 0.00 75 1006.7
20260906032557 20 110 0.0 3.2 0.00 0.00 0.00 75 1006.6
20260906032057 20 67 0.0 4.8 0.00 0.00 0.00 74 1006.5
20260906031602 20 89 0.0 6.4 0.00 0.00 0.00 74 1006.4
20260906031039 20 60 0.0 6.4 0.00 0.00 0.00 73 1006.2
20260906030539 20 208 0.0 4.8 0.00 0.00 0.00 72 1006.1
20260906030039 20 127 0.0 6.4 0.00 0.00 0.00 72 1006.0
20260906025539 20 49 0.0 4.8 0.00 0.00 0.00 71 1005.9
20260906025039 20 70 0.0 4.8 0.00 0.00 0.00 70 1005.8
20260906024542 20 61 0.0 3.2 0.00 0.00 0.00 69 1005.7
20260906024025 20 50 0.0 1.6 0.00 0.00 0.00 68 1005.5
20260906023521 20 46 0.0 9.7 0.00 0.00 0.00 66 1005.5
20260906023020 20 124 1.6 9.7 0.00 0.00 0.00 64 1005.4
20260906022521 20 72 0.0 1.6 0.00 0.00 0.00 63 1005.3
20260906022020 21 137 0.0 1.6 0.00 0.00 0.00 62 1005.2
20260906021520 21 54 0.0 1.6 0.00 0.00 0.00 60 1005.2
20260906021002 21 156 0.0 3.2 0.00 0.00 0.00 59 1005.0
20260906020502 21 63 0.0 3.2 0.00 0.00 0.00 58 1005.0
20260906020002 21 49 0.0 1.6 0.00 0.00 0.00 58 1004.9
20260906015504 21 69 0.0 1.6 0.00 0.00 0.00 57 1004.7
20260906015002 21 63 0.0 1.6 0.00 0.00 0.00 57 1004.6
20260906014502 21 61 0.0 1.6 0.00 0.00 0.00 56 1004.6
20260906014045 21 84 0.0 1.6 0.00 0.00 0.00 56 1004.5
20260906013543 21 74 0.0 1.6 0.00 0.00 0.00 56 1004.4
20260906013043 22 27 0.0 1.6 0.00 0.00 0.00 57 1004.3
20260906012542 22 62 0.0 1.6 0.00 0.00 0.00 56 1004.3
20260906012043 22 68 0.0 1.6 0.00 0.00 0.00 56 1004.2
20260906011543 22 61 0.0 1.6 0.00 0.00 0.00 55 1004.1
20260906011030 22 73 0.0 0.0 0.00 0.00 0.00 54 1004.0
20260906010524 23 50 0.0 1.6 0.00 0.00 0.00 53 1004.0
20260906010024 23 59 0.0 1.6 0.00 0.00 0.00 52 1003.9
20260906005525 23 70 0.0 1.6 0.00 0.00 0.00 52 1003.7
20260906005024 23 76 0.0 1.6 0.00 0.00 0.00 51 1003.8
20260906004524 23 75 0.0 1.6 0.00 0.00 0.00 51 1003.7
20260906004006 24 62 0.0 1.6 0.00 0.00 0.00 50 1003.6
20260906003507 24 63 0.0 1.6 0.00 0.00 0.00 50 1003.5
20260906003008 25 68 0.0 1.6 0.00 0.00 0.00 48 1003.4
20260906002506 25 74 0.0 1.6 0.00 0.00 0.00 46 1003.3
20260906002006 25 77 0.0 1.6 0.00 0.00 0.00 44 1003.4
20260906001506 25 71 0.0 1.6 0.00 0.00 0.00 42 1003.4
20260906001048 26 74 0.0 1.6 0.00 0.00 0.00 41 1003.3
20260906000551 26 41 0.0 1.6 0.00 0.00 0.00 41 1003.2
20260906000048 26 69 0.0 1.6 0.00 0.00 0.00 40 1003.0
20260905235547 26 77 0.0 1.6 0.00 0.00 0.00 40 1003.1
20260905235048 26 56 0.0 1.6 0.00 0.00 0.00 39 1003.1
20260905234547 26 49 0.0 1.6 0.00 0.00 0.00 38 1003.0
20260905234032 26 67 0.0 1.6 0.00 0.00 0.00 35 1003.0
20260905233529 26 60 0.0 3.2 0.00 0.00 0.00 36 1003.1
20260905233032 27 72 0.0 1.6 0.00 0.00 0.00 36 1003.2
20260905232531 27 58 0.0 0.0 0.00 0.00 0.00 36 1003.1
20260905232029 27 74 0.0 1.6 0.00 0.00 0.00 35 1003.0
20260905231529 27 72 0.0 1.6 0.00 0.00 0.00 33 1003.0
20260905231009 27 65 0.0 3.2 0.00 0.00 0.00 33 1003.0
20260905230509 27 39 0.0 3.2 0.00 0.00 0.00 34 1003.0
20260905230012 27 58 0.0 0.0 0.00 0.00 0.00 32 1003.0
20260905225508 27 53 0.0 1.6 0.00 0.00 0.00 34 1003.2
20260905225007 27 109 0.0 1.6 0.00 0.00 0.00 32 1003.3
20260905224507 27 60 0.0 1.6 0.00 0.00 0.00 34 1003.4
20260905224107 27 67 0.0 1.6 0.00 0.00 0.00 34 1003.4
20260905223549 27 60 0.0 1.6 0.00 0.00 0.00 34 1003.4
20260905223049 27 44 0.0 3.2 0.00 0.00 0.00 34 1003.3
20260905222549 27 61 0.0 3.2 0.00 0.00 0.00 33 1003.1
20260905222048 27 67 0.0 4.8 0.00 0.00 0.00 33 1003.3
20260905221549 27 8 0.0 4.8 0.00 0.00 0.00 35 1003.3
20260905221046 27 76 0.0 1.6 0.00 0.00 0.00 35 1003.4
20260905220528 27 60 0.0 0.0 0.00 0.00 0.00 35 1003.4
20260905220029 27 277 0.0 1.6 0.00 0.00 0.00 38 1003.5
20260905215527 27 325 0.0 1.6 0.00 0.00 0.00 37 1003.5
20260905215027 27 75 0.0 1.6 0.00 0.00 0.00 35 1003.6
20260905214526 27 67 0.0 0.0 0.00 0.00 0.00 34 1003.6
20260905214025 27 53 0.0 1.6 0.00 0.00 0.00 37 1003.8
20260905213506 27 46 0.0 1.6 0.00 0.00 0.00 35 1003.8
20260905213006 27 58 0.0 1.6 0.00 0.00 0.00 35 1003.9
20260905212505 27 46 0.0 1.6 0.00 0.00 0.00 36 1004.0
20260905212003 27 259 0.0 1.6 0.00 0.00 0.00 38 1004.1
20260905211508 27 236 0.0 1.6 0.00 0.00 0.00 40 1004.1
20260905211002 27 256 0.0 1.6 0.00 0.00 0.00 40 1004.3
20260905210543 26 15 0.0 1.6 0.00 0.00 0.00 37 1004.4
20260905210100 26 76 0.0 1.6 0.00 0.00 0.00 40 1004.4
20260905205543 26 66 0.0 9.7 0.00 0.00 0.00 38 1004.5
20260905205043 26 45 1.6 9.7 0.00 0.00 0.00 38 1004.5
20260905204542 27 8 0.0 8.0 0.00 0.00 0.00 39 1004.6
20260905204044 27 356 0.0 0.0 0.00 0.00 0.00 38 1004.7
20260905203523 27 76 0.0 3.2 0.00 0.00 0.00 37 1004.9
20260905203028 27 354 0.0 3.2 0.00 0.00 0.00 38 1005.0
20260905202521 27 60 0.0 0.0 0.00 0.00 0.00 37 1005.2
20260905202020 27 68 0.0 3.2 0.00 0.00 0.00 40 1005.3
20260905201519 26 47 0.0 3.2 0.00 0.00 0.00 38 1005.4
20260905201018 27 51 0.0 1.6 0.00 0.00 0.00 38 1005.5
20260905200601 27 167 0.0 3.2 0.00 0.00 0.00 39 1005.6
20260905200130 27 228 0.0 3.2 0.00 0.00 0.00 42 1005.7
20260905195601 27 350 0.0 1.6 0.00 0.00 0.00 41 1005.8
20260905195056 26 131 0.0 3.2 0.00 0.00 0.00 42 1005.9
20260905194557 26 278 0.0 1.6 0.00 0.00 0.00 45 1006.0
20260905194054 25 53 0.0 1.6 0.00 0.00 0.00 40 1006.0
20260905193534 25 70 0.0 1.6 0.00 0.00 0.00 41 1006.2
20260905193034 25 60 0.0 1.6 0.00 0.00 0.00 40 1006.3
20260905192535 25 15 0.0 3.2 0.00 0.00 0.00 41 1006.4
20260905192033 26 29 0.0 3.2 0.00 0.00 0.00 39 1006.5
20260905191536 25 65 0.0 1.6 0.00 0.00 0.00 42 1006.6
20260905191031 25 67 0.0 1.6 0.00 0.00 0.00 40 1006.6
20260905190512 26 84 0.0 1.6 0.00 0.00 0.00 41 1006.7
20260905190012 26 109 0.0 1.6 0.00 0.00 0.00 44 1006.8
20260905185510 25 200 0.0 4.8 0.00 0.00 0.00 47 1006.8
20260905185008 25 127 0.0 4.8 0.00 0.00 0.00 46 1007.0
20260905184508 24 67 0.0 0.0 0.00 0.00 0.00 45 1007.0
20260905184007 24 67 0.0 0.0 0.00 0.00 0.00 48 1007.2
20260905183549 24 41 0.0 0.0 0.00 0.00 0.00 47 1007.3
20260905183049 24 15 0.0 1.6 0.00 0.00 0.00 47 1007.4
20260905182546 23 73 0.0 1.6 0.00 0.00 0.00 46 1007.6
20260905182046 23 56 0.0 1.6 0.00 0.00 0.00 48 1007.7
20260905181545 24 67 0.0 1.6 0.00 0.00 0.00 46 1007.8
20260905181043 24 256 0.0 0.0 0.00 0.00 0.00 52 1007.8
20260905180527 23 129 0.0 0.0 0.00 0.00 0.00 52 1007.9
20260905180023 23 127 0.0 0.0 0.00 0.00 0.00 58 1007.9
20260905175522 22 66 0.0 0.0 0.00 0.00 0.00 55 1007.9
20260905175021 22 55 0.0 1.6 0.00 0.00 0.00 56 1008.1
20260905174520 22 69 0.0 1.6 0.00 0.00 0.00 61 1008.2
20260905174020 22 57 0.0 0.0 0.00 0.00 0.00 59 1008.2
20260905173502 22 65 0.0 0.0 0.00 0.00 0.00 61 1008.3
20260905173101 22 17 0.0 0.0 0.00 0.00 0.00 62 1008.3
20260905172600 22 57 0.0 1.6 0.00 0.00 0.00 66 1008.2
20260905172058 22 6 0.0 1.6 0.00 0.00 0.00 68 1008.2
20260905171605 21 179 0.0 1.6 0.00 0.00 0.00 69 1008.2
20260905171055 21 58 0.0 1.6 0.00 0.00 0.00 69 1008.4
20260905170537 21 70 0.0 0.0 0.00 0.00 0.00 69 1008.6
20260905170036 21 224 0.0 0.0 0.00 0.00 0.00 72 1008.7
20260905165534 20 239 0.0 0.0 0.00 0.00 0.00 75 1008.7
20260905165033 20 142 0.0 0.0 0.00 0.00 0.00 75 1008.7
20260905164533 20 51 0.0 0.0 0.00 0.00 0.00 76 1008.8
20260905164029 19 53 0.0 0.0 0.00 0.00 0.00 76 1008.8
20260905163512 19 53 0.0 0.0 0.00 0.00 0.00 78 1008.9
20260905163011 19 69 0.0 0.0 0.00 0.00 0.00 78 1009.0
20260905162510 19 256 0.0 0.0 0.00 0.00 0.00 80 1009.0
20260905162013 18 250 0.0 0.0 0.00 0.00 0.00 81 1009.1
20260905161508 18 250 0.0 0.0 0.00 0.00 0.00 81 1009.1
20260905161007 18 43 0.0 0.0 0.00 0.00 0.00 83 1009.2
20260905160605 17 56 0.0 0.0 0.00 0.00 0.00 83 1009.3
20260905160051 17 11 0.0 0.0 0.00 0.00 0.00 84 1009.4
20260905155546 17 348 0.0 1.6 0.00 0.00 0.00 86 1009.4
20260905155044 17 61 0.0 1.6 0.00 0.00 0.00 86 1009.3
20260905154552 16 250 0.0 0.0 0.00 0.00 0.00 89 1009.4
20260905154046 16 250 0.0 0.0 0.00 0.00 0.00 88 1009.4
20260905153544 16 232 0.0 1.6 0.00 0.00 0.00 88 1009.3